Powrót do katalogu

ONEWEB-0464

AktywnyŁącznośćPO
NORAD 51651·PAYLOAD·🇬🇧 United Kingdom

Wystrzelony Feb 10, 2022 z Guiana Space Centre

Loading…

Następne Przeloty (najbliższe 24 godziny)

TLE

ŚwieżeSource: CelesTrak SupGP

Epoka: Sep 14, 2026, 15:01 UTC

1 51651C 22012AF  26257.62619630 -.00000349  00000+0 -10008-2 0  2575
2 51651  87.8902  18.4711 0001994  96.9466  21.8574 13.10371762    18

Śledź ONEWEB-0464 w czasie rzeczywistym z AllMySat

Download on the App Store